AMV105 ELLX-LZIB

Flight info

Callsign AMV105
Flight time 1h 19m
Altitude 39000
Route EXCOS DCT MAPIG DCT RIXED DCT MIQ DCT GAMLI DCT KUVEX
Aircraft B38M/M-SDE1FGHILORVWXY/HB1

Departure

Time 2026-05-06 19:05
Airport Luxembourg-Findel International Airport (ELLX)

Arrival

Time 2026-05-06 20:24
Airport M. R. Štefánik Airport (LZIB)
Time Latitude Longitude Altitude Speed Heading
2026-05-06 18:30 49.63328 6.21561 1232 ft 0 kts 330°
2026-05-06 18:52 49.63313 6.21574 1236 ft 4 kts 330°
2026-05-06 18:52 49.63290 6.21596 1232 ft 4 kts 321°
2026-05-06 18:53 49.63271 6.21625 1232 ft 4 kts 310°
2026-05-06 18:53 49.63260 6.21646 1232 ft 1 kts 306°
2026-05-06 18:53 49.63259 6.21649 1232 ft 0 kts 306°
2026-05-06 18:58 49.63264 6.21636 1232 ft 2 kts 300°
2026-05-06 18:58 49.63270 6.21601 1232 ft 4 kts 272°
2026-05-06 18:58 49.63259 6.21550 1232 ft 6 kts 234°
2026-05-06 18:58 49.63222 6.21542 1232 ft 7 kts 164°
2026-05-06 18:59 49.63176 6.21577 1232 ft 8 kts 150°
2026-05-06 18:59 49.63119 6.21627 1232 ft 11 kts 146°
2026-05-06 18:59 49.63110 6.21749 1228 ft 14 kts 64°
2026-05-06 18:59 49.63152 6.21887 1229 ft 14 kts 66°
2026-05-06 19:00 49.63196 6.22031 1230 ft 15 kts 64°
2026-05-06 19:00 49.63245 6.22186 1229 ft 18 kts 65°
2026-05-06 19:00 49.63304 6.22379 1223 ft 22 kts 64°
2026-05-06 19:00 49.63384 6.22608 1218 ft 26 kts 59°
2026-05-06 19:01 49.63476 6.22856 1217 ft 27 kts 60°
2026-05-06 19:01 49.63572 6.23116 1216 ft 29 kts 60°
2026-05-06 19:01 49.63652 6.23329 1215 ft 17 kts 61°
2026-05-06 19:01 49.63645 6.23452 1214 ft 0 kts 143°
2026-05-06 19:02 49.63628 6.23468 1215 ft 8 kts 148°
2026-05-06 19:03 49.63558 6.23523 1217 ft 13 kts 167°
2026-05-06 19:03 49.63507 6.23474 1219 ft 0 kts 239°
2026-05-06 19:04 49.63498 6.23450 1218 ft 14 kts 239°
2026-05-06 19:04 49.63333 6.23004 1211 ft 84 kts 240°
2026-05-06 19:04 49.62939 6.21949 1218 ft 141 kts 240°
2026-05-06 19:04 49.62382 6.20478 1447 ft 166 kts 243°
2026-05-06 19:05 49.61765 6.18822 1842 ft 191 kts 243°
2026-05-06 19:05 49.61086 6.17015 2668 ft 201 kts 241°
2026-05-06 19:05 49.60468 6.14999 3214 ft 211 kts 254°
2026-05-06 19:05 49.59838 6.13181 4715 ft 184 kts 227°
2026-05-06 19:06 49.58857 6.11799 5390 ft 206 kts 217°
2026-05-06 19:06 49.57367 6.11278 5555 ft 250 kts 172°
2026-05-06 19:06 49.55572 6.11600 6419 ft 260 kts 174°
2026-05-06 19:06 49.53871 6.12614 7118 ft 279 kts 143°
2026-05-06 19:07 49.52716 6.15031 7943 ft 285 kts 108°
2026-05-06 19:07 49.52529 6.18063 8762 ft 290 kts 80°
2026-05-06 19:07 49.53204 6.20980 9622 ft 292 kts 63°
2026-05-06 19:07 49.53959 6.23946 10225 ft 305 kts 73°
2026-05-06 19:08 49.54519 6.27209 10526 ft 326 kts 76°
2026-05-06 19:08 49.54991 6.30677 10814 ft 343 kts 79°
2026-05-06 19:08 49.55475 6.34357 11229 ft 357 kts 77°
2026-05-06 19:08 49.56019 6.38141 11787 ft 364 kts 78°
2026-05-06 19:09 49.56530 6.41967 12589 ft 365 kts 79°
2026-05-06 19:09 49.56926 6.45855 13286 ft 371 kts 89°
2026-05-06 19:09 49.56550 6.49770 13987 ft 373 kts 108°
2026-05-06 19:09 49.55773 6.53547 14660 ft 375 kts 108°
2026-05-06 19:10 49.54970 6.57380 15387 ft 378 kts 109°
2026-05-06 19:10 49.54148 6.61236 16090 ft 382 kts 109°
2026-05-06 19:10 49.53306 6.65143 16838 ft 385 kts 109°
2026-05-06 19:10 49.52455 6.69060 17570 ft 389 kts 110°
2026-05-06 19:11 49.51593 6.73026 18233 ft 393 kts 109°
2026-05-06 19:11 49.50724 6.77009 18923 ft 393 kts 110°
2026-05-06 19:11 49.49850 6.81009 19542 ft 397 kts 109°
2026-05-06 19:11 49.48964 6.85053 20130 ft 400 kts 110°
2026-05-06 19:12 49.48085 6.89061 20714 ft 403 kts 110°
2026-05-06 19:12 49.47037 6.93055 21266 ft 404 kts 117°
2026-05-06 19:12 49.45781 6.96932 21810 ft 407 kts 118°
2026-05-06 19:12 49.44500 7.00829 22354 ft 411 kts 117°
2026-05-06 19:13 49.43625 7.05015 22907 ft 416 kts 100°
2026-05-06 19:13 49.43369 7.09467 23423 ft 419 kts 98°
2026-05-06 19:13 49.42925 7.13901 23831 ft 422 kts 102°
2026-05-06 19:13 49.42347 7.18335 24248 ft 424 kts 104°
2026-05-06 19:14 49.41686 7.22759 24653 ft 427 kts 105°
2026-05-06 19:14 49.40977 7.27206 25101 ft 429 kts 106°
2026-05-06 19:14 49.40248 7.31650 25528 ft 431 kts 107°
2026-05-06 19:14 49.39507 7.36061 25936 ft 434 kts 107°
2026-05-06 19:15 49.38734 7.40618 26365 ft 436 kts 107°
2026-05-06 19:15 49.37977 7.45066 26764 ft 438 kts 107°
2026-05-06 19:15 49.37202 7.49603 27184 ft 441 kts 107°
2026-05-06 19:15 49.36421 7.54160 27572 ft 443 kts 107°
2026-05-06 19:16 49.35635 7.58740 27938 ft 445 kts 107°
2026-05-06 19:16 49.34841 7.63346 28266 ft 449 kts 107°
2026-05-06 19:16 49.34038 7.67996 28611 ft 452 kts 108°
2026-05-06 19:16 49.33235 7.72633 29007 ft 453 kts 108°
2026-05-06 19:17 49.32421 7.77323 29366 ft 456 kts 108°
2026-05-06 19:17 49.31602 7.82029 29726 ft 458 kts 108°
2026-05-06 19:17 49.30778 7.86751 30056 ft 460 kts 108°
2026-05-06 19:17 49.29950 7.91483 30380 ft 461 kts 108°
2026-05-06 19:18 49.29128 7.96164 30752 ft 460 kts 108°
2026-05-06 19:18 49.28297 8.00892 31133 ft 461 kts 109°
2026-05-06 19:18 49.27462 8.05625 31446 ft 462 kts 109°
2026-05-06 19:18 49.26623 8.10370 31780 ft 462 kts 109°
2026-05-06 19:19 49.25781 8.15117 32150 ft 462 kts 109°
2026-05-06 19:19 49.24938 8.19857 32510 ft 462 kts 109°
2026-05-06 19:19 49.24092 8.24603 32889 ft 462 kts 110°
2026-05-06 19:19 49.23244 8.29346 33244 ft 462 kts 110°
2026-05-06 19:20 49.22394 8.34090 33613 ft 462 kts 110°
2026-05-06 19:20 49.21543 8.38826 33918 ft 462 kts 110°
2026-05-06 19:20 49.20691 8.43559 34203 ft 462 kts 110°
2026-05-06 19:20 49.19837 8.48290 34481 ft 463 kts 110°
2026-05-06 19:21 49.18988 8.52976 34763 ft 463 kts 110°
2026-05-06 19:21 49.18130 8.57705 35043 ft 463 kts 110°
2026-05-06 19:21 49.17266 8.62451 35328 ft 463 kts 110°
2026-05-06 19:21 49.16401 8.67191 35628 ft 463 kts 110°
2026-05-06 19:22 49.15532 8.71936 35908 ft 463 kts 110°
2026-05-06 19:22 49.14663 8.76676 36179 ft 464 kts 110°
2026-05-06 19:22 49.13794 8.81401 36442 ft 463 kts 110°
2026-05-06 19:22 49.12921 8.86131 36676 ft 464 kts 110°
2026-05-06 19:23 49.12045 8.90873 36896 ft 464 kts 110°
2026-05-06 19:23 49.11166 8.95616 37139 ft 464 kts 110°
2026-05-06 19:23 49.10284 9.00359 37379 ft 464 kts 110°
2026-05-06 19:23 49.09404 9.05085 37613 ft 464 kts 110°
2026-05-06 19:24 49.08518 9.09828 37843 ft 464 kts 109°
2026-05-06 19:24 49.07632 9.14562 38090 ft 464 kts 109°
2026-05-06 19:24 49.06757 9.19219 38285 ft 464 kts 109°
2026-05-06 19:24 49.05867 9.23947 38492 ft 464 kts 109°
2026-05-06 19:25 49.04976 9.28668 38640 ft 464 kts 110°
2026-05-06 19:25 49.04083 9.33393 38786 ft 464 kts 110°
2026-05-06 19:25 49.03187 9.38115 38821 ft 464 kts 110°
2026-05-06 19:26 49.01396 9.47524 38806 ft 462 kts 110°
2026-05-06 19:26 48.99613 9.56844 38806 ft 462 kts 110°
2026-05-06 19:27 48.97811 9.66221 38811 ft 462 kts 110°
2026-05-06 19:27 48.96001 9.75594 38794 ft 461 kts 110°
2026-05-06 19:28 48.94185 9.84948 38808 ft 461 kts 110°
2026-05-06 19:28 48.92363 9.94287 38797 ft 461 kts 110°
2026-05-06 19:29 48.90532 10.03626 38802 ft 461 kts 110°
2026-05-06 19:29 48.88708 10.12890 38789 ft 461 kts 110°
2026-05-06 19:30 48.86864 10.22224 38807 ft 461 kts 110°
2026-05-06 19:30 48.85019 10.31520 38812 ft 461 kts 110°
2026-05-06 19:31 48.83156 10.40819 38797 ft 460 kts 111°
2026-05-06 19:31 48.80179 10.54621 38783 ft 461 kts 112°
2026-05-06 19:32 48.78188 10.63872 38804 ft 463 kts 112°
2026-05-06 19:32 48.76182 10.73151 38782 ft 463 kts 112°
2026-05-06 19:33 48.74169 10.82424 38779 ft 463 kts 112°
2026-05-06 19:33 48.72150 10.91680 38759 ft 463 kts 112°
2026-05-06 19:34 48.70122 11.00933 38746 ft 465 kts 112°
2026-05-06 19:34 48.68090 11.10168 38748 ft 465 kts 112°
2026-05-06 19:35 48.66040 11.19442 38744 ft 465 kts 112°
2026-05-06 19:35 48.63982 11.28712 38754 ft 465 kts 112°
2026-05-06 19:36 48.61919 11.37962 38732 ft 466 kts 112°
2026-05-06 19:36 48.59837 11.47255 38749 ft 467 kts 112°
2026-05-06 19:37 48.57764 11.56480 38753 ft 467 kts 112°
2026-05-06 19:37 48.56209 11.64360 38758 ft 468 kts 109°
2026-05-06 19:38 48.54105 11.75304 38770 ft 468 kts 110°
2026-05-06 19:38 48.52581 11.83140 38775 ft 468 kts 110°
2026-05-06 19:39 48.50742 11.92558 38776 ft 468 kts 110°
2026-05-06 19:39 48.48592 12.03506 38763 ft 468 kts 110°
2026-05-06 19:40 48.46739 12.12891 38764 ft 468 kts 110°
2026-05-06 19:40 48.45189 12.20710 38717 ft 468 kts 110°
2026-05-06 19:41 48.43317 12.30106 38732 ft 469 kts 110°
2026-05-06 19:41 48.41132 12.41022 38712 ft 469 kts 110°
2026-05-06 19:42 48.39555 12.48860 38688 ft 468 kts 110°
2026-05-06 19:42 48.37674 12.58171 38695 ft 468 kts 110°
2026-05-06 19:43 48.35769 12.67552 38682 ft 468 kts 110°
2026-05-06 19:43 48.33864 12.76897 38688 ft 468 kts 111°
2026-05-06 19:44 48.31949 12.86239 38689 ft 468 kts 111°
2026-05-06 19:44 48.30025 12.95586 38689 ft 468 kts 111°
2026-05-06 19:45 48.28096 13.04908 38696 ft 466 kts 112°
2026-05-06 19:45 48.26184 13.14109 38680 ft 465 kts 112°
2026-05-06 19:46 48.24250 13.23372 38561 ft 466 kts 112°
2026-05-06 19:46 48.23281 13.27996 38339 ft 464 kts 113°
2026-05-06 19:46 48.22311 13.32613 38055 ft 464 kts 113°
2026-05-06 19:47 48.21326 13.37293 37740 ft 465 kts 113°
2026-05-06 19:47 48.20364 13.41853 37450 ft 468 kts 114°
2026-05-06 19:47 48.19390 13.46458 37164 ft 470 kts 114°
2026-05-06 19:47 48.18402 13.51122 36890 ft 471 kts 114°
2026-05-06 19:48 48.17396 13.55860 36614 ft 472 kts 114°
2026-05-06 19:48 48.16409 13.60498 36355 ft 473 kts 114°
2026-05-06 19:48 48.15406 13.65199 36075 ft 474 kts 114°
2026-05-06 19:48 48.14399 13.69906 35804 ft 475 kts 114°
2026-05-06 19:49 48.13391 13.74610 35547 ft 476 kts 115°
2026-05-06 19:49 48.12376 13.79333 35255 ft 477 kts 115°
2026-05-06 19:49 48.11356 13.84072 34994 ft 478 kts 115°
2026-05-06 19:49 48.10339 13.88781 34730 ft 478 kts 115°
2026-05-06 19:50 48.09314 13.93520 34488 ft 478 kts 115°
2026-05-06 19:50 48.08289 13.98245 34236 ft 478 kts 115°
2026-05-06 19:50 48.07260 14.02980 33979 ft 479 kts 115°
2026-05-06 19:50 48.06229 14.07712 33723 ft 479 kts 116°
2026-05-06 19:51 48.05212 14.12375 33453 ft 479 kts 116°
2026-05-06 19:51 48.04174 14.17117 33131 ft 480 kts 115°
2026-05-06 19:51 48.03137 14.21849 32854 ft 482 kts 115°
2026-05-06 19:51 48.02089 14.26615 32582 ft 483 kts 115°
2026-05-06 19:52 48.01038 14.31384 32305 ft 483 kts 115°
2026-05-06 19:52 47.99988 14.36141 32040 ft 483 kts 115°
2026-05-06 19:52 47.98932 14.40912 31771 ft 483 kts 115°
2026-05-06 19:52 47.97879 14.45661 31493 ft 483 kts 115°
2026-05-06 19:53 47.96821 14.50425 31230 ft 483 kts 115°
2026-05-06 19:53 47.95761 14.55188 30969 ft 483 kts 115°
2026-05-06 19:53 47.94701 14.59944 30731 ft 484 kts 115°
2026-05-06 19:53 47.93650 14.64647 30593 ft 486 kts 114°
2026-05-06 19:54 47.92580 14.69422 30355 ft 485 kts 114°
2026-05-06 19:54 47.91513 14.74188 30103 ft 485 kts 114°
2026-05-06 19:54 47.90827 14.79155 29826 ft 496 kts 99°
2026-05-06 19:54 47.90864 14.84333 29524 ft 501 kts 92°
2026-05-06 19:55 47.90946 14.89514 29238 ft 501 kts 94°
2026-05-06 19:55 47.91000 14.94701 28939 ft 502 kts 94°
2026-05-06 19:55 47.91051 14.99900 28595 ft 502 kts 93°
2026-05-06 19:55 47.91100 15.05111 28287 ft 503 kts 93°
2026-05-06 19:56 47.91146 15.10319 27883 ft 503 kts 93°
2026-05-06 19:56 47.91189 15.15469 27393 ft 503 kts 93°
2026-05-06 19:56 47.91228 15.20667 27022 ft 501 kts 93°
2026-05-06 19:56 47.91271 15.25811 26549 ft 491 kts 93°
2026-05-06 19:57 47.91309 15.30826 26162 ft 479 kts 93°
2026-05-06 19:57 47.91343 15.35795 25765 ft 485 kts 93°
2026-05-06 19:57 47.91373 15.40865 25344 ft 492 kts 93°
2026-05-06 19:57 47.91403 15.45998 24902 ft 495 kts 93°
2026-05-06 19:58 47.91431 15.51122 24456 ft 493 kts 93°
2026-05-06 19:58 47.91457 15.56217 23992 ft 489 kts 94°
2026-05-06 19:58 47.91479 15.61272 23531 ft 486 kts 94°
2026-05-06 19:58 47.91500 15.66297 23269 ft 484 kts 92°
2026-05-06 19:59 47.91520 15.71294 22815 ft 481 kts 93°
2026-05-06 19:59 47.91536 15.76189 22251 ft 477 kts 94°
2026-05-06 19:59 47.91550 15.81124 21737 ft 474 kts 94°
2026-05-06 19:59 47.91562 15.86006 21191 ft 470 kts 93°
2026-05-06 20:00 47.91572 15.90838 20684 ft 463 kts 92°
2026-05-06 20:00 47.91579 15.95627 20191 ft 460 kts 93°
2026-05-06 20:00 47.91585 16.00372 19696 ft 455 kts 93°
2026-05-06 20:00 47.91589 16.05044 19380 ft 445 kts 93°
2026-05-06 20:01 47.91593 16.09590 19145 ft 432 kts 92°
2026-05-06 20:01 47.91594 16.14007 18929 ft 424 kts 93°
2026-05-06 20:01 47.91589 16.18482 18759 ft 439 kts 93°
2026-05-06 20:01 47.91584 16.23001 17272 ft 457 kts 93°
2026-05-06 20:02 47.91584 16.27866 15908 ft 471 kts 93°
2026-05-06 20:02 47.91093 16.32424 16681 ft 420 kts 107°
2026-05-06 20:02 47.90468 16.36632 16000 ft 421 kts 104°
2026-05-06 20:02 47.89940 16.40917 15356 ft 418 kts 104°
2026-05-06 20:03 47.89289 16.44977 15483 ft 394 kts 110°
2026-05-06 20:03 47.88530 16.48816 15533 ft 382 kts 111°
2026-05-06 20:03 47.87745 16.52462 15582 ft 399 kts 112°
2026-05-06 20:03 47.86842 16.56694 15590 ft 411 kts 111°
2026-05-06 20:04 47.85975 16.60787 15858 ft 418 kts 111°
2026-05-06 20:04 47.85084 16.64934 16133 ft 422 kts 111°
2026-05-06 20:04 47.84208 16.69098 16174 ft 417 kts 110°
2026-05-06 20:04 47.83411 16.73114 15962 ft 405 kts 110°
2026-05-06 20:05 47.82626 16.77149 15228 ft 408 kts 110°
2026-05-06 20:05 47.81844 16.81188 14650 ft 407 kts 110°
2026-05-06 20:05 47.81074 16.85212 14176 ft 399 kts 111°
2026-05-06 20:05 47.80318 16.89099 13731 ft 382 kts 110°
2026-05-06 20:06 47.79607 16.92815 13243 ft 368 kts 110°
2026-05-06 20:06 47.78933 16.96430 12673 ft 357 kts 110°
2026-05-06 20:06 47.78277 16.99938 12141 ft 347 kts 110°
2026-05-06 20:06 47.77631 17.03343 11666 ft 337 kts 110°
2026-05-06 20:07 47.77168 17.06651 11321 ft 329 kts 98°
2026-05-06 20:07 47.77362 17.10004 11004 ft 323 kts 79°
2026-05-06 20:07 47.78225 17.13032 10726 ft 316 kts 59°
2026-05-06 20:07 47.79599 17.15544 10287 ft 312 kts 49°
2026-05-06 20:08 47.81057 17.17943 9765 ft 316 kts 49°
2026-05-06 20:08 47.82423 17.20520 9245 ft 319 kts 56°
2026-05-06 20:08 47.83663 17.23248 8862 ft 317 kts 59°
2026-05-06 20:08 47.84842 17.25990 8562 ft 312 kts 59°
2026-05-06 20:09 47.86005 17.28696 8274 ft 308 kts 59°
2026-05-06 20:09 47.87154 17.31367 7963 ft 305 kts 59°
2026-05-06 20:09 47.88296 17.34017 7665 ft 302 kts 59°
2026-05-06 20:09 47.89432 17.36641 7370 ft 300 kts 59°
2026-05-06 20:10 47.90614 17.39142 7099 ft 299 kts 51°
2026-05-06 20:10 47.92075 17.41332 7042 ft 300 kts 41°
2026-05-06 20:10 47.93693 17.43326 6892 ft 301 kts 34°
2026-05-06 20:10 47.95483 17.44897 6719 ft 299 kts 25°
2026-05-06 20:11 47.97369 17.46216 6575 ft 299 kts 21°
2026-05-06 20:11 47.99290 17.47398 6449 ft 296 kts 19°
2026-05-06 20:11 48.01196 17.48458 6325 ft 288 kts 17°
2026-05-06 20:11 48.03057 17.49428 6214 ft 279 kts 16°
2026-05-06 20:12 48.04853 17.50326 6095 ft 275 kts 15°
2026-05-06 20:12 48.06679 17.51146 5981 ft 273 kts
2026-05-06 20:12 48.08501 17.50948 5831 ft 257 kts 333°
2026-05-06 20:12 48.09972 17.49597 5742 ft 244 kts 309°
2026-05-06 20:13 48.11209 17.47860 5690 ft 245 kts 308°
2026-05-06 20:13 48.12430 17.46093 5601 ft 244 kts 307°
2026-05-06 20:13 48.13637 17.44299 5501 ft 244 kts 307°
2026-05-06 20:13 48.14834 17.42508 5400 ft 245 kts 309°
2026-05-06 20:14 48.16339 17.41213 5260 ft 259 kts 340°
2026-05-06 20:14 48.18164 17.41190 5157 ft 269 kts 13°
2026-05-06 20:14 48.19789 17.42497 5089 ft 271 kts 43°
2026-05-06 20:14 48.21127 17.44473 5077 ft 271 kts 46°
2026-05-06 20:15 48.22473 17.46458 4966 ft 271 kts 46°
2026-05-06 20:15 48.23824 17.48437 4746 ft 273 kts 46°
2026-05-06 20:15 48.25182 17.50417 4404 ft 272 kts 47°
2026-05-06 20:15 48.26540 17.52398 4008 ft 273 kts 47°
2026-05-06 20:16 48.27901 17.54378 3616 ft 272 kts 47°
2026-05-06 20:16 48.29284 17.56314 3221 ft 271 kts 38°
2026-05-06 20:16 48.31005 17.57401 2803 ft 271 kts
2026-05-06 20:16 48.32832 17.57080 2548 ft 261 kts 334°
2026-05-06 20:17 48.34276 17.55638 2491 ft 244 kts 305°
2026-05-06 20:17 48.35064 17.53491 2491 ft 229 kts 275°
2026-05-06 20:17 48.35069 17.51246 2507 ft 212 kts 247°
2026-05-06 20:17 48.34535 17.49218 2526 ft 209 kts 240°
2026-05-06 20:18 48.33919 17.47247 2506 ft 208 kts 236°
2026-05-06 20:18 48.33185 17.45401 2485 ft 202 kts 231°
2026-05-06 20:18 48.32380 17.43797 2531 ft 182 kts 225°
2026-05-06 20:18 48.31568 17.42437 2527 ft 173 kts 222°
2026-05-06 20:19 48.30741 17.41161 2505 ft 165 kts 220°
2026-05-06 20:19 48.29939 17.39970 2518 ft 158 kts 218°
2026-05-06 20:19 48.29157 17.38831 2494 ft 156 kts 218°
2026-05-06 20:19 48.28379 17.37702 2488 ft 155 kts 218°
2026-05-06 20:20 48.27603 17.36577 2482 ft 155 kts 218°
2026-05-06 20:20 48.26836 17.35466 2476 ft 156 kts 218°
2026-05-06 20:20 48.26051 17.34335 2479 ft 157 kts 218°
2026-05-06 20:20 48.25256 17.33185 2333 ft 159 kts 218°
2026-05-06 20:21 48.24496 17.32081 2194 ft 146 kts 218°
2026-05-06 20:21 48.23774 17.31037 2009 ft 141 kts 217°
2026-05-06 20:21 48.23109 17.30073 1873 ft 128 kts 216°
2026-05-06 20:21 48.22474 17.29160 1723 ft 126 kts 217°
2026-05-06 20:22 48.21845 17.28250 1532 ft 125 kts 216°
2026-05-06 20:22 48.21210 17.27336 1353 ft 128 kts 217°
2026-05-06 20:22 48.20577 17.26433 1162 ft 129 kts 219°
2026-05-06 20:22 48.19935 17.25486 1017 ft 129 kts 216°
2026-05-06 20:23 48.19278 17.24571 754 ft 130 kts 215°
2026-05-06 20:23 48.18616 17.23622 756 ft 136 kts 220°
2026-05-06 20:23 48.17944 17.22613 488 ft 138 kts 217°
2026-05-06 20:23 48.17309 17.21719 428 ft 104 kts 221°
2026-05-06 20:24 48.16952 17.21198 425 ft 40 kts 226°
2026-05-06 20:24 48.16784 17.20959 422 ft 32 kts 224°
2026-05-06 20:24 48.16639 17.20751 433 ft 26 kts 224°
2026-05-06 20:24 48.16574 17.20589 437 ft 17 kts 288°
2026-05-06 20:25 48.16645 17.20464 425 ft 8 kts 314°
2026-05-06 20:25 48.16654 17.20450 433 ft 0 kts 314°
2026-05-06 20:25 48.16655 17.20448 433 ft 1 kts 314°
2026-05-06 20:26 48.16668 17.20428 433 ft 4 kts 313°
2026-05-06 20:26 48.16695 17.20384 428 ft 7 kts 313°
2026-05-06 20:26 48.16734 17.20326 438 ft 8 kts 316°
2026-05-06 20:26 48.16774 17.20269 433 ft 8 kts 315°
2026-05-06 20:27 48.16813 17.20211 426 ft 8 kts 314°
2026-05-06 20:27 48.16824 17.20193 442 ft 1 kts 314°
2026-05-06 20:27 48.16833 17.20180 435 ft 3 kts 314°
2026-05-06 20:27 48.16846 17.20149 443 ft 4 kts 284°
2026-05-06 20:28 48.16852 17.20106 443 ft 5 kts 301°
2026-05-06 20:28 48.16870 17.20075 434 ft 2 kts 313°
2026-05-06 20:28 48.16880 17.20058 443 ft 2 kts 313°
2026-05-06 20:28 48.16885 17.20050 443 ft 0 kts 314°